Location: Brantford
(43.1330°N, 80.2670°W)
Time: 23:29:05
(UTC-05:00)

Altair - Visible Passes

Search period start: 13 November 2019 00:00
Search period end: 23 November 2019 00:00
Orbit: 1502 x 1682 km, 47.2° (Epoch: 12 November)

Date Brightness Start Highest point End Pass type
(mag) Time Alt. Az. Time Alt. Az. Time Alt. Az.
13 Nov 8.5 03:26:57 31° SSE 03:28:34 33° SE 03:36:28 10° ENE visible
13 Nov 7.5 05:25:01 18° WSW 05:32:23 84° SSE 05:41:46 10° ENE visible
14 Nov 8.6 03:03:45 30° SE 03:03:45 30° SE 03:11:10 10° ENE visible
14 Nov 7.4 05:01:49 29° SW 05:07:14 80° SSE 05:16:34 10° ENE visible
15 Nov 8.9 02:40:26 26° ESE 02:40:26 26° ESE 02:45:51 10° ENE visible
15 Nov 7.4 04:38:29 42° SW 04:42:06 76° SSE 04:51:22 10° ENE visible
15 Nov 7.6 06:37:53 10° W 06:47:04 70° N 06:56:31 10° ENE visible
16 Nov 9.2 02:17:03 20° E 02:17:03 20° E 02:20:30 10° E visible
16 Nov 7.4 04:15:06 58° SSW 04:16:58 72° SSE 04:26:11 10° ENE visible
16 Nov 7.5 06:13:09 12° W 06:21:52 71° N 06:31:16 10° ENE visible
17 Nov 9.5 01:53:35 14° E 01:53:35 14° E 01:55:06 10° E visible
17 Nov 7.4 03:51:37 68° SSE 03:51:51 68° SSE 04:01:00 10° ENE visible
17 Nov 7.5 05:49:40 20° W 05:56:39 72° N 06:06:03 10° ENE visible
18 Nov 7.7 03:28:05 58° ESE 03:28:05 58° ESE 03:35:49 10° ENE visible
18 Nov 7.4 05:26:07 29° W 05:31:26 73° NNW 05:40:49 10° ENE visible
19 Nov 8.2 03:04:30 44° E 03:04:30 44° E 03:10:37 10° ENE visible
19 Nov 7.4 05:02:32 41° W 05:06:15 75° NNW 05:15:36 10° ENE visible
20 Nov 8.6 02:40:52 32° E 02:40:52 32° E 02:45:26 10° ENE visible
20 Nov 7.3 04:38:54 57° W 04:41:03 77° NNW 04:50:23 10° ENE visible
20 Nov 7.6 06:37:13 10° WNW 06:46:25 72° N 06:55:52 10° E visible
21 Nov 9.1 02:17:12 23° ENE 02:17:12 23° ENE 02:20:14 10° ENE visible
21 Nov 7.2 04:15:14 75° WNW 04:15:52 79° NNW 04:25:11 10° ENE visible
21 Nov 7.6 06:13:15 15° WNW 06:21:12 71° N 06:30:37 10° E visible
22 Nov 9.4 01:53:31 16° ENE 01:53:31 16° ENE 01:55:02 10° ENE visible
22 Nov 7.4 03:51:32 75° NE 03:51:32 75° NE 03:59:58 10° ENE visible
22 Nov 7.5 05:49:33 22° WNW 05:56:01 70° N 06:05:22 10° E visible
